Other Public Products
Issued by NWS Grand Forks, ND

Home | Current Version | Previous Version | Text Only | Print | Product List | Glossary Off
Versions: 1 2 3 4 5 6 7 8 9 10 11 12 13 14 15 16 17 18 19 20 21 22 23 24 25 26 27 28 29 30 31 32 33 34 35 36 37 38 39 40 41 42 43 44 45 46 47 48 49 50

000
FPUS83 KFGF 010410
OPUFGF
PRAIRIE TO PINES WEATHER ROUNDUP
NATIONAL WEATHER SERVICE EASTERN NORTH DAKOTA/GRAND FORKS ND
1000 PM CST SAT JAN 31 2015

 **SATELLITE DATA USED TO AUGMENT SKY COVER AT AUTOMATED STATIONS**
 *****  WEATHER ACROSS EASTERN NORTH DAKOTA  *****

CITY           SKY/WX    TMP DP  RH WIND       PRES   REMARKS
GRAND FORKS    PTCLDY    -7 -15  68 N15       30.51S WCI -28
GRAND FORKS AF PTCLDY    -8 -17  63 N16       30.52R WCI -30
GRAND CITY NWS   N/A     -9 N/A N/A VRB23       N/A  WCI -36
BUXTON         NOT AVBL
DEVILS LAKE    MOCLDY    -9 -18  64 NE13      30.46R WCI -30
FARGO          CLOUDY    -1 -10  65 N23       30.41R WCI -25
WAHPETON ARPT  CLOUDY     9  -4  56 N23G30    30.32S WCI -12
$$

 *****  WEATHER ACROSS CENTRAL AND WESTERN NORTH DAKOTA  *****

CITY           SKY/WX    TMP DP  RH WIND       PRES   REMARKS
JAMESTOWN      CLOUDY    -3 -11  68 N21       30.39R WCI -26
BISMARCK       LGT SNOW  -1  -7  75 NE16G23   30.40R WCI -21
MINOT          CLOUDY    -7 -15  68 N15       30.47R WCI -28
MINOT AFB      PTCLDY    -8 -17  63 N13       30.49R WCI -28
GARRISON         N/A     -2  -9  72 NE9       30.41S WCI -18
WILLISTON      CLOUDY    -2 -10  69 NE9       30.46R WCI -18
DICKINSON      LGT SNOW  -1  -6  79 NE15      30.29R WCI -21
HETTINGER      LGT SNOW   3  -1  83 NE14      30.25R VSB 1   WCI -15
$$

 *****  OTHER OBSERVATIONS NORTHEAST NORTH DAKOTA  *****

CITY           SKY/WX    TMP DP  RH WIND       PRES   REMARKS
WALHALLA         N/A     -9 -18  64 N15       30.58S WCI -31
LANGDON        NOT AVBL
CAVALIER       FAIR      -9 -17  70 N10G18    30.57R WCI -28
GRAFTON        NOT AVBL
CANDO          CLOUDY    -9 -20  59 NE17G24   30.49S WCI -33
FORT TOTTEN      N/A    -10 -19  63 N7        29.95S WCI -25
ROLLA          CLOUDY   -11 -18  70 N15       30.47S WCI -34
RUGBY          FAIR      -8 -18  59 NE14      30.49S WCI -28
 ***** THE ABOVE OBSERVATIONS ARE NON NWS ARE NOT QUALITY
        CONTROLLED AND MAY MIS-REPORT RAIN FOR SNOW...
$$

 *****  OTHER OBSERVATIONS SOUTHEAST NORTH DAKOTA *****

CITY           SKY/WX    TMP DP  RH WIND       PRES   REMARKS
COOPERSTOWN    NOT AVBL
VALLEY CITY    FLURRIES  -2  -9  71 N18       30.39R WCI -24
OAKES            N/A      0  -8  71 N30G36    30.31R WCI -26
GWINNER        CLOUDY     3  -8  60 N25G32    30.33S WCI -20
BUFFALO        NOT AVBL
WYNDMERE         N/A      1  -8  66 N16         N/A  WCI -18
 ***** THE ABOVE OBSERVATIONS ARE NON NWS ARE NOT QUALITY
       CONTROLLED AND MAY MIS-REPORT RAIN FOR SNOW...
$$

  *****  WEATHER ACROSS NORTHERN MINNESOTA  *****

CITY           SKY/WX    TMP DP  RH WIND       PRES   REMARKS
FLAG ISLAND    MOCLDY    -9 -17  70 N12       30.48S WCI -29
WARROAD        MOCLDY    -9 -17  70 N7        30.49R WCI -24
ROSEAU         PTCLDY    -9 -17  70 N7        30.50R WCI -24
HALLOCK        PTCLDY   -11 -20  64 N14       30.55S WCI -33
THF RVR FALLS  PTCLDY    -2 -11  65 NE15      30.44S WCI -22
HALSTAD          N/A     -3 -13  62 N20         N/A  WCI -26
FOSSTON        PTCLDY    -6 -13  71 N10G17    30.40R WCI -23
BAUDETTE       PTCLDY   -10 -17  71 N7        30.45R WCI -25
WASKISH        PTCLDY    -8 -13  77 N6        30.42S WCI -21
CROOKSTON      PTCLDY    -4 -11  71 N14       30.49R WCI -24
$$
  *****  WEATHER ACROSS CENTRAL AND WEST MINNESOTA  *****

CITY           SKY/WX    TMP DP  RH WIND       PRES   REMARKS
BEMIDJI        MOCLDY    -5 -11  76 N9        30.36S WCI -21
PARK RAPIDS    MOCLDY     4  -5  66 N9        30.29R WCI -10
WADENA         CLOUDY     7  -2  66 NE17      30.27S WCI -12
DETROIT LAKES  MOCLDY     7  -2  66 NE10      30.32R WCI  -8
MOORHEAD       MOCLDY     1  -6  71 N18       30.39S WCI -19
FERGUS FALLS   CLOUDY     9  -4  56 NE14G21   30.33R WCI  -8
ELBOW LAKE     CLOUDY    12   2  64 NE13G18   30.26R WCI  -3
MORRIS MN      CLOUDY    18   3  53 NE18      30.22R WCI   2
STAPLES        CLOUDY    10  -2  56 NE10      30.27S WCI  -3
WHEATON        CLOUDY     9   0  66 N17G25    30.30R WCI -10
$$
  *****  WEATHER ELSEWHERE ACROSS MINNESOTA  *****

CITY           SKY/WX    TMP DP  RH WIND       PRES   REMARKS
DULUTH         MOCLDY     5  -7  57 N12       30.29R WCI -11
INTRNTL FALLS  MOCLDY    -9 -17  68 NE6       30.43R WCI -22
ELY            MOCLDY    -8 -15  71 NE3       30.36R
CLOQUET        CLOUDY     7  -6  56 N6        30.30R WCI  -3
BRAINERD       CLOUDY    10  -3  55 NE15      30.28R WCI  -7
HIBBING        MOCLDY     1 -12  54 N9        30.34R WCI -14
ALEXANDRIA     MOCLDY    13   1  59 NE17G24   30.23R WCI  -4
SAINT CLOUD    CLOUDY    19   2  47 NE13G23   30.23R WCI   6
MINNEAPOLIS    CLOUDY    25  11  55 NE15      30.19S WCI  13
$$

  *****  WEATHER ACROSS SOUTH DAKOTA  *****

CITY           SKY/WX    TMP DP  RH WIND       PRES   REMARKS
SIOUX FALLS    LGT SNOW  24  21  88 NE20      30.03S VSB 3/4 WCI  10
BROOKINGS      NOT AVBL
WATERTOWN      CLOUDY    11   2  67 NE17G28   30.13R WCI  -6
HURON          CLOUDY    16   5  62 N15G23    30.16S WCI   1
SISSETON         N/A      8  -1  66 N21G26    30.28R WCI -12
ABERDEEN       CLOUDY     6  -4  63 NE23G33   30.28R WCI -15
MITCHELL       LGT SNOW  20  17  88 N17       30.11R VSB 3/4 WCI   5
PIERRE         CLOUDY    12   2  64 NE16G23   30.19R WCI  -5
MOBRIDGE       CLOUDY     9  -3  58 N17G24    30.26R WCI  -9
RAPID CITY     LGT SNOW  16  13  88 NE13      30.10R FOG     WCI   2
$$

  *****  SOME WEATHER IN NEARBY STATES *****

CITY           SKY/WX    TMP DP  RH WIND       PRES   REMARKS
GLASGOW MT     LGT SNOW   5  -1  76 NE7       30.44R WCI  -7
GREAT FALLS MT CLOUDY     9   5  85 CALM      30.33S
CHEYENNE WY    CLOUDY    28  21  75 N26G37    29.87R WCI  13
SCOTTSBLUFF NE CLOUDY    26  24  92 MISG      29.97R
OMAHA NE       LGT SNOW  33  32  96 E3        29.90F VSB 1
DES MOINES IA  LGT SNOW  34  31  88 E7        29.97F VSB 3/4
DAVENPORT IA   MIX PCPN  32  30  92 SE5       30.09F FOG
CHICAGO IL     LGT SNOW  31  29  92 E7        30.15R VSB 1   WCI  24
EAU CLAIRE WI  CLOUDY    20   9  62 NE14      30.21R WCI   7
LA CROSSE WI   LGT SNOW  28  23  81 E5        30.17R WCI  23
$$

  *****  SOME NATIONAL WEATHER *****

CITY           SKY/WX    TMP DP  RH WIND       PRES   REMARKS
LA GUARDIA NY  PTCLDY    21   6  52 NW12      30.21S WCI   9
RALEIGH NC     FAIR      34  14  43 CALM      30.28F
ATLANTA GA     CLOUDY    47  22  37 CALM      30.27F
NEW ORLEANS LA CLOUDY    57  51  80 E8        30.14F
OKLAHOMA CITY  LGT RAIN  44  41  89 S12       29.87F FOG
ALBUQUERQUE NM PTCLDY    37  35  92 NW3       29.95R
SALT LAKE CITY CLEAR     36  29  75 NW3       30.12S
LOS ANGELES CA CLEAR     60  56  86 SW5       29.95R
BOISE ID       PTCLDY    34  28  79 CALM      30.15F
SEATTLE WA     CLOUDY    43  40  89 N6        30.15F
$$

*** WEATHER ACROSS MANITOBA...SASKATCHEWAN AND ONTARIO ***
                ***ONTARIO***

CITY           SKY/WX    TMP DP  RH WIND       PRES   REMARKS
GERALDTON      CLEAR     -6 -29  31 SW2       30.39S
THUNDER BAY    CLEAR     -8 -17  65 N3        30.47R
SIOUX LOOKOUT  CLEAR    -27 -33  75 NE2       30.43S
TORONTO        CLOUDY    27  21  80 W17       30.14S WCI  14
BIG TROUT LK   CLEAR    -24 -29  76 W7        30.39R WCI -42
PICKLE LAKE    NOT AVBL
DRYDEN         CLEAR    -15 -20  76 N6        30.43S WCI -29
KENORA         CLEAR    -15 -22  70 N7        30.45S WCI -31
$$
                *** MANITOBA***

CITY           SKY/WX    TMP DP  RH WIND       PRES   REMARKS
BRANDON        MOCLDY   -20 -27  69 NW6       30.58R WCI -36
DAUPHIN        CLEAR    -18 -27  63 W8        30.62S WCI -37
ISLAND LAKE    CLEAR    -22 -27  76 W5        30.49S WCI -36
PILOT MOUND      N/A    -15 -20  76 N9          N/A  WCI -33
THE PAS        CLEAR    -18 -26  69 W7        30.58F WCI -35
THOMPSON       CRYSTALS -18 -27  63 W10       30.47F WCI -39
WINNIPEG       PTCLDY   -15 -24  64 N7        30.62R WCI -31
LYNN LAKE      CLEAR    -22 -29  69 W7        30.42F WCI -39
CHURCHILL      CLEAR    -22 -31  63 NW16G22   30.32S WCI -48
GILLAM         CLEAR    -20 -29  63 W13       30.39F WCI -43
$$
                ***SASKATCHEWAN***

CITY           SKY/WX    TMP DP  RH WIND       PRES   REMARKS
ESTEVAN        CLOUDY    -8 -17  65 E6        30.48S WCI -21
KINDERSLEY     PTCLDY   -13 -17  84 S7        30.47F WCI -29
LLOYDMINSTER   MOCLDY    -6  -9  84 SW5       30.44F WCI -17
PRINCE ALBERT  MOCLDY   -11 -20  64 SW7       30.57F WCI -26
REGINA         PTCLDY    -6 -13  71 NW5       30.51S WCI -17
YORKTON        CLEAR    -17 -24  70 W7        30.55R WCI -33


USA.gov is the U.S. government's official web portal to all federal, state and local government web resources and services.